Location: Newark
(25.4297°S, 49.2719°W)
Time: 08:21:16
(UTC+00:00)

Tiros 1 - Visible Passes

Search period start: 14 November 2019 00:00
Search period end: 24 November 2019 00:00
Orbit: 630 x 664 km, 48.4° (Epoch: 14 November)

Date Brightness Start Highest point End Pass type
(mag) Time Alt. Az. Time Alt. Az. Time Alt. Az.
14 Nov 8.0 05:54:47 50° ESE 05:54:47 50° ESE 05:58:26 10° SE visible
14 Nov 9.2 07:33:03 10° WSW 07:36:11 17° SSW 07:39:19 10° S visible
15 Nov 8.0 06:19:40 39° SW 06:19:41 39° SW 06:24:15 10° SSE visible
16 Nov 9.6 05:06:51 20° SE 05:06:51 20° SE 05:08:22 10° SE visible
16 Nov 9.1 06:44:30 16° WSW 06:46:05 18° SSW 06:49:26 10° S visible
17 Nov 9.0 05:31:36 29° S 05:31:36 29° S 05:34:16 10° SSE visible
18 Nov 9.2 05:56:18 19° SSW 05:56:18 19° SSW 05:59:32 10° SSE visible
19 Nov 10.0 04:43:18 16° SSE 04:43:18 16° SSE 04:44:16 10° SSE visible
20 Nov 9.7 05:07:53 17° S 05:07:53 17° S 05:09:36 10° SSE visible
21 Nov 9.9 05:32:25 11° SSW 05:32:34 11° SSW 05:33:33 10° SSW visible
22 Nov 10.3 04:19:17 12° SSE 04:19:17 12° SSE 04:19:40 10° SSE visible
23 Nov 10.2 04:43:42 10° SSW 04:43:42 10° SSW 04:43:59 10° S visible
